Location: Molveno
(46.1500°N, 10.9667°E)
Time: 07:51:39
(UTC+00:00)

Terra - Pass Details

Date: 05 July 2020
Orbit: 701 x 703 km, 98.2° (Epoch: 06 August)

Event Time Altitude Azimuth Distance (km) Brightness Sun altitude
Exits shadow 22:10:31 16° 224° (SW) 1,781 3.6 -19.4°
Maximum altitude 22:13:03 25° 266° (W) 1,420 3.5 -19.5°
Drops below altitude 10° 22:16:57 10° 321° (NW) 2,180 5.3 -19.7°
Sets 22:19:36 0° 335° (NNW) 3,104 6.7 -19.8°
